ONEWEB-0695, 61602

Orbit data source: Space-Track

ONEWEB-0695, 61602 is a payload satellite owned by Eut. One Web (UK) in LEO that was launched on Sun, 20 Oct 2024 UTC via an FALCON 9 launch vehicle from the Air Force Western Test Range (AFWTR). Payload-class satellites include a variety of spacecraft equipped with specific instruments for various scientific and technological missions. These include communications satellites like Starlink; space stations such as the ISS; scientific satellites like the Hubble; Earth observation satellites from companies like Planet Labs, Umbra, and HawkEye 360; GPS; miniature CubeSats for education and research; and military/defense satellites.

Loading next visibility...
Identifier
61602, 2024-188J
Orbit
LEO
Country
Flag of UKUK
Related business
Manufacturer
One Web
Mission
Operational Commercial Communications
Bus & Motor
ARROW, Unknown motor
Mass
148 kg wet, ~140 kg dry
Launch date (UTC)
2024-10-20 (1 year ago)
Launch vehicle
FALCON 9
Launch site
Air Force Western Test Range (AFWTR)
Object type
Payload
Rocket body
Debris
Shape & HBR
Trap Box + 2 Pan, 6.7 m
Radar Cross Section
3.464 m², Medium (>0.1 m² and < 1m²)

Expand to show TLE details & history
Last TLE update: 1 day ago

TLE from 1 day ago
0 ONEWEB-0695
1 61602U 24188J   25305.59919973 -.00000520  00000-0 -15022-2 0  9996
2 61602  87.8840  66.4056 0002014  86.0648 274.0710 13.11418429 54631
Epoch: 2025-11-01T14:22Z
TLE epoch observation values (Epoch: 2025-11-01T14:22:50.856Z)
Latitude
-0.00005°
Longitude
169.56673°
Altitude
1,220.458 km
Speed
7.244 km/s
True Right ascension
04h 25m 37s
True Declination
0° 00' 00"
Sunlit
Object was in full shadow at epoch
Visualization orbit readout
Latitude
Unknown
Longitude
Unknown
Altitude
Unknown
Speed
Unknown
Apparent Right ascension
Unknown
Apparent Declination
Unknown
Sunlit
N/A
Visualization observer readout
Local Sidereal Time
13:00:21
Azimuth
Unknown
Elevation
Unknown
Doppler factor
Unknown
Orbital elements
Apogee altitude
1,216.324 km
Perigee altitude
1,213.266 km
Semi-major axis
7,592.932 km
Eccentricity
0.0002
Inclination
87.884°
RAAN
66.4056°
Arg. of periapsis
86.0648°
True anomaly
274.04798°
Mean anomaly
274.071°
Eccentric anomaly
274.05949°
Mean motion
3.28042 °/min
Orbital period
109.74 mins
BSTAR
-0.0015022
Loading maneuver chart data...
Computing Atmospheric mass density...
Loading historical data...
Loading historical data...
Loading historical data...
Loading historical data...
Loading historical data...
Loading historical data...
Loading historical data...

Documentation

Showing up to 5 results
|